Dewpoint
55 55 54 43 35 41 35 32 39 35 30 29 29 27 27 28 31 35 62 66 70 70 72 73 74 74 73 73 72 71 71 71 71 70 69 69 68 68 68 66 66 65 65 68 67 67 66 66 67
54 52 43 40 33 26 20 36 32 31 28 24 24 26 28 29 58 60 63 68 70 71 72 72 74 74 73 73 72 72 72 71 71 70 71 70 69 69 68 66 67 68 67 68 67 66 68 67 65
50 50 39 36 35 17 20 31 29 26 24 22 20 26 29 32 57 61 63 69 70 71 71 72 74 73 73 73 72 72 72 72 71 71 71 70 70 69 69 68 69 68 68 68 67 67 67 64 65
47 43 41 35 26 31 29 28 27 24 22 20 18 18 24 46 56 60 68 69 70 71 71 73 74 73 73 73 72 72 72 72 71 71 70 70 70 70 69 70 69 69 69 68 67 67 65 64 64
43 41 34 34 31 31 29 28 26 23 22 20 18 17 19 53 61 63 68 69 69 70 71 72 73 73 73 73 72 72 72 72 71 71 70 70 69 70 70 70 69 69 68 66 66 66 64 63 63
39 38 34 29 29 31 30 30 28 24 21 21 19 19 20 50 56 62 65 67 68 69 71 71 73 73 73 73 72 72 72 72 71 70 70 70 69 70 70 70 69 68 66 65 64 65 63 63 62
37 35 31 32 30 30 30 26 22 23 22 21 21 20 22 41 50 54 65 66 67 69 70 71 71 72 72 72 72 72 72 71 71 70 70 70 69 70 69 69 69 68 66 65 65 65 62 63 62
36 35 32 31 28 28 29 27 26 24 22 22 22 20 21 38 44 48 55 60 67 68 69 69 70 71 72 72 72 72 71 71 71 70 69 69 70 69 69 68 68 67 67 66 64 62 62 62 62
34 32 30 30 29 29 27 27 27 27 23 25 22 23 25 31 32 36 49 51 58 66 68 68 69 69 70 70 71 71 71 71 70 69 68 69 69 69 68 67 67 66 65 65 63 63 62 61 60
31 29 29 30 29 29 30 30 30 26 25 25 26 27 28 29 31 32 48 51 52 55 64 67 67 68 69 70 70 71 70 70 69 68 68 68 68 68 67 66 66 66 65 65 64 63 61 59 58
32 29 30 30 30 31 31 30 29 25 24 25 25 26 27 28 29 32 34 42 52 57 61 62 66 67 68 68 70 70 70 69 68 67 67 68 67 67 66 65 65 65 64 64 64 61 58 56 56
31 32 31 31 32 32 31 31 29 26 25 25 26 26 26 25 27 29 32 39 51 53 58 59 60 66 67 68 69 68 69 68 67 67 67 66 66 66 66 65 64 64 63 63 61 58 56 55 56
27 27 26 26 25 25 25 24 25 25 26 26 26 26 26 26 26 30 39 44 51 51 54 57 58 62 66 67 66 67 67 67 67 66 66 65 66 65 64 64 64 64 63 61 59 58 58 58 59
27 27 26 26 25 25 23 23 23 23 23 22 22 24 26 27 28 30 35 39 48 53 52 55 57 58 64 66 66 66 67 66 66 65 65 65 65 65 64 64 63 63 62 61 59 59 59 59 57
28 24 25 23 24 24 24 21 21 23 23 22 22 22 23 24 26 27 32 36 43 52 53 53 55 59 61 63 65 66 67 66 65 64 63 65 65 64 64 63 63 62 62 61 59 59 59 56 54
25 26 20 20 22 23 24 18 21 23 22 21 21 22 22 22 23 24 27 33 38 49 53 53 55 57 57 62 63 64 67 66 65 64 61 65 64 63 63 62 62 62 61 60 59 57 56 54 55
23 17 20 21 22 22 21 19 20 21 21 20 19 21 23 23 24 25 27 31 35 47 54 53 54 51 54 61 62 63 63 66 65 65 60 63 64 62 62 61 61 61 60 59 57 55 54 54 56
15 19 20 19 20 21 21 22 23 23 22 20 19 18 19 22 23 25 27 31 34 42 53 54 54 53 54 59 61 61 61 63 65 65 60 62 64 62 61 60 60 60 59 57 55 53 56 56 58
23 22 22 22 23 23 22 21 19 19 20 20 19 19 19 22 26 27 30 32 36 40 49 55 54 53 55 59 60 60 58 59 61 65 61 61 63 61 60 59 60 60 57 56 53 54 56 58 59
25 24 22 22 19 18 19 19 21 22 23 24 25 25 24 23 23 29 32 33 37 40 47 53 54 54 54 56 59 60 60 59 64 64 63 61 63 61 59 58 59 58 56 54 53 55 58 59 59
25 23 22 20 20 24 24 22 23 24 25 26 27 27 27 26 25 29 31 33 37 46 51 52 54 55 55 56 58 60 61 61 60 62 62 62 62 61 59 58 58 57 55 54 55 56 58 58 59
21 22 22 22 26 20 26 18 20 22 31 32 34 32 29 29 29 30 32 32 38 45 52 53 55 56 56 60 60 59 59 59 60 60 62 62 62 61 60 59 57 56 56 56 57 58 59 60 58
24 26 27 28 27 26 23 22 20 30 30 33 34 36 37 31 34 37 39 34 40 47 52 54 54 54 56 59 60 59 58 59 60 60 60 61 60 59 58 57 57 57 58 58 59 60 60 60 59
29 30 29 30 28 19 20 22 19 28 33 33 35 36 37 40 36 37 38 41 45 49 50 51 52 54 56 57 60 59 59 59 60 60 59 59 59 58 57 57 57 58 59 60 60 61 61 60 59
32 28 18 17 17 16 26 26 23 34 34 35 35 37 38 43 42 40 39 41 44 47 49 51 50 54 56 56 58 59 59 59 59 59 58 58 58 58 58 57 58 60 60 61 61 61 61 60 59
30 28 22 15 18 21 29 23 27 35 36 37 39 40 41 43 43 44 43 43 46 48 49 50 53 56 56 56 57 58 59 59 59 59 58 58 57 58 59 58 59 61 61 61 61 61 60 60 60
30 27 32 26 27 24 24 27 33 33 34 35 35 37 42 43 44 44 45 46 46 48 48 52 54 56 57 57 56 57 58 59 59 59 58 58 58 58 61 60 60 62 61 61 61 60 60 60 60
33 35 27 28 20 17 21 25 25 30 31 32 33 34 39 42 44 45 45 44 46 49 52 56 57 57 58 57 56 55 55 58 60 59 57 59 59 60 61 61 61 61 61 61 60 60 60 59 60
32 30 31 31 28 22 19 22 32 31 32 31 32 36 40 43 44 45 47 48 48 53 55 56 57 57 57 57 57 56 57 59 59 59 59 60 60 61 60 61 61 61 61 60 60 59 59 59 59
33 32 31 26 23 25 26 24 35 34 34 32 33 36 42 45 47 46 48 49 51 54 55 56 57 57 58 59 59 58 59 60 59 59 60 61 61 61 61 61 61 60 60 60 59 58 59 59 58
Wind_Speed
9 11 3 4 4 2 6 6 4 6 2 3 13 11 14 9 9 8 1 13 19 25 20 21 24 29 28 25 24 21 21 18 20 21 22 22 23 20 20 20 20 20 20 19 21 21 22 22 22
10 5 5 4 4 7 7 7 9 7 10 17 7 6 7 7 1 2 10 13 26 24 21 20 23 26 27 27 27 23 23 20 19 20 20 21 22 20 20 20 19 18 21 20 20 20 19 19 16
8 1 4 7 6 15 5 6 3 8 15 9 7 6 4 1 1 11 3 20 21 22 21 20 23 25 25 26 26 25 25 22 21 18 19 20 21 20 20 18 18 21 22 21 20 19 17 15 16
4 3 4 5 18 10 6 5 7 15 7 7 9 7 14 10 3 7 16 19 19 20 18 21 23 24 25 24 24 25 24 23 23 20 20 19 21 21 22 20 20 20 22 20 19 17 14 13 15
4 3 3 5 15 6 5 10 11 15 12 10 8 9 11 11 18 12 20 16 19 17 17 21 23 24 22 23 23 23 25 23 22 21 21 20 21 22 25 21 20 20 21 19 18 15 12 13 14
4 3 4 14 13 5 9 10 7 7 8 14 8 9 5 10 25 19 3 18 18 19 16 19 23 25 25 24 24 22 24 23 21 22 22 21 21 23 24 22 20 20 20 18 16 13 12 12 15
5 5 5 5 7 9 8 5 4 7 10 6 10 9 1 14 10 15 8 3 13 15 18 16 17 21 24 24 24 24 23 23 22 21 22 21 22 24 24 23 20 19 18 17 14 12 12 11 13
4 3 3 6 13 11 5 11 6 7 11 7 2 4 2 14 22 8 12 7 5 12 15 18 15 16 20 21 24 24 23 22 22 21 20 22 24 24 23 22 21 19 18 17 14 13 12 11 14
3 4 8 6 6 4 8 11 3 8 5 10 3 9 4 15 22 25 14 8 7 5 9 12 18 13 13 16 21 23 24 23 22 20 23 22 17 19 21 18 21 21 18 17 15 13 11 11 14
5 6 9 6 5 5 14 14 16 9 13 16 10 15 10 11 16 18 17 14 10 6 7 11 14 17 13 14 16 17 18 19 17 15 20 15 16 16 15 19 20 20 18 17 15 13 12 10 10
3 6 5 9 12 14 14 19 9 13 19 9 22 19 30 12 10 12 14 14 8 10 8 3 3 10 17 15 14 13 14 14 17 19 18 17 15 16 14 14 14 14 16 13 13 12 10 10 8
5 6 7 8 13 13 18 15 20 17 16 15 19 17 22 23 8 7 11 15 9 6 6 3 4 3 12 13 16 15 14 15 16 22 19 18 16 18 16 14 14 13 12 14 14 13 11 9 7
7 6 8 10 13 11 15 19 18 22 17 15 18 22 24 30 16 8 9 11 11 6 6 5 2 2 6 10 18 15 16 18 18 21 22 19 18 18 17 15 13 13 14 14 14 13 12 9 7
4 10 11 7 13 13 18 22 13 7 15 23 23 24 25 29 25 11 12 13 15 14 11 8 6 1 5 8 17 19 16 16 18 19 22 23 21 18 17 16 15 14 15 15 15 15 12 9 7
7 12 13 14 14 10 16 29 24 17 18 25 25 26 28 31 33 27 16 19 19 19 16 14 11 9 6 8 5 20 18 18 16 18 21 24 22 21 20 18 16 16 15 16 15 13 8 7 7
5 4 6 4 4 7 6 38 22 23 23 26 25 25 26 29 30 34 22 21 22 21 20 17 14 14 8 9 10 6 10 14 18 16 18 23 24 24 21 19 18 16 15 15 16 14 10 10 10
2 7 7 10 6 8 12 23 11 10 15 22 22 23 24 27 31 31 26 20 24 24 24 21 17 16 13 12 12 13 13 8 16 17 16 21 23 24 23 21 18 18 15 15 16 11 12 11 8
4 7 7 13 3 8 25 39 38 28 25 30 31 30 28 29 30 28 29 20 25 25 25 25 22 20 16 14 17 16 18 11 14 20 19 24 23 25 22 21 21 19 15 15 16 16 8 10 12
10 14 20 27 19 20 30 36 39 32 28 31 33 31 30 29 27 27 28 24 24 27 26 26 24 20 17 12 13 17 21 20 16 16 23 25 25 26 25 21 20 20 18 19 19 11 14 8 10
15 20 29 23 18 10 24 43 35 36 33 32 34 34 34 31 26 25 25 27 23 28 28 28 27 24 22 16 16 9 17 18 18 21 19 26 27 28 26 24 22 21 17 18 18 17 9 6 14
18 18 26 25 26 15 18 24 14 10 16 23 30 35 31 30 27 24 24 29 24 25 26 27 27 25 24 23 17 16 15 14 23 19 23 25 28 29 27 25 22 20 20 21 20 19 18 13 11
20 15 26 18 11 8 8 16 17 12 15 10 14 16 24 26 25 24 22 23 23 27 23 24 23 22 23 22 21 25 20 20 26 32 18 23 28 26 26 24 22 21 19 19 19 17 16 15 17
13 8 13 17 19 19 6 10 12 11 14 26 29 21 18 23 25 23 22 22 24 23 22 23 23 22 21 22 23 25 26 19 26 33 31 24 25 27 26 25 23 23 18 18 18 18 18 15 15
14 16 18 14 7 6 5 9 11 10 25 33 24 22 21 19 20 19 18 18 18 19 22 21 20 17 20 21 22 25 25 28 20 27 29 23 22 21 23 24 24 21 17 18 18 16 17 17 14
1 6 5 3 2 5 3 6 12 16 27 28 28 23 19 17 14 16 17 16 17 20 21 20 20 21 17 22 15 19 8 31 25 27 27 26 22 21 22 23 20 18 18 16 16 17 17 18 17
6 3 2 4 3 6 5 14 8 14 23 26 30 20 15 11 9 11 13 17 19 21 21 20 22 22 23 17 15 17 15 16 20 23 25 25 25 24 21 21 21 19 18 17 17 15 14 15 15
2 4 2 5 5 4 4 8 5 21 30 30 30 28 14 11 11 11 10 13 18 17 21 22 25 25 24 18 20 16 7 5 17 18 20 22 22 20 19 21 21 19 19 20 18 16 17 16 14
6 5 1 3 6 5 5 8 18 34 34 30 31 30 24 16 13 15 17 16 14 15 13 19 22 23 24 22 17 20 18 17 15 18 21 20 18 19 21 21 20 20 19 19 18 15 15 17 15
3 4 3 2 3 4 5 6 15 26 27 27 29 29 25 18 14 14 13 8 9 11 17 16 15 15 18 23 20 18 24 22 25 17 19 20 19 20 22 22 22 22 22 20 19 17 16 16 15
1 7 7 5 9 5 5 7 21 25 25 21 26 30 26 14 5 11 5 8 11 19 20 17 11 11 11 14 17 17 20 17 24 21 17 17 20 19 20 21 22 22 20 19 20 19 18 18 18
Wind_Direction
338 324 336 42 136 62 246 237 255 262 230 27 310 296 280 271 271 270 92 177 141 156 161 162 160 155 155 152 149 151 144 147 141 136 134 134 132 134 135 132 129 127 129 118 112 109 111 108 106
348 351 50 87 144 215 242 221 204 241 335 325 295 294 277 289 156 184 138 177 151 156 159 162 161 159 157 155 153 154 150 153 147 144 147 143 140 138 139 135 140 135 127 117 117 116 110 108 100
339 320 116 153 173 226 217 223 235 338 332 2 359 292 289 268 315 169 236 152 150 153 158 161 161 161 159 158 157 155 155 157 151 154 148 150 145 140 141 134 124 126 124 119 120 120 118 103 94
13 47 50 184 218 238 202 177 356 340 349 21 353 335 331 330 211 187 147 141 148 152 158 160 160 163 161 160 161 157 157 157 155 156 155 152 146 138 133 125 122 123 120 121 124 123 119 98 92
51 75 168 219 239 246 237 279 337 321 311 331 328 311 319 352 3 132 143 145 154 154 155 161 161 163 164 161 163 161 157 161 159 160 157 154 150 138 131 128 124 130 125 124 125 123 116 98 86
111 110 184 217 238 257 282 304 340 323 341 334 3 332 304 14 43 6 325 155 159 156 159 167 165 163 165 166 164 166 160 163 163 162 161 155 151 140 134 131 128 126 126 123 128 125 120 104 93
144 141 205 215 248 265 264 356 12 348 326 326 332 319 285 30 13 40 10 46 155 153 160 169 175 168 165 168 166 167 166 164 164 165 162 154 149 140 140 134 134 132 130 132 136 136 131 118 100
134 132 203 208 233 261 282 330 300 325 310 311 318 269 357 349 341 19 56 26 197 160 161 170 173 174 171 167 167 167 165 166 164 164 158 151 147 143 140 138 138 137 137 138 143 143 140 129 102
112 201 221 217 214 255 340 337 356 337 293 320 270 297 37 7 1 359 0 18 26 208 182 171 168 180 180 170 171 168 166 165 164 161 155 148 145 141 138 143 140 139 142 142 145 147 147 138 118
179 204 210 215 247 289 306 303 306 319 317 300 299 309 320 7 7 357 346 351 346 339 248 198 175 174 178 176 171 170 173 168 159 158 153 146 143 143 139 143 142 142 145 146 150 154 154 148 136
192 227 218 261 280 290 286 292 281 286 288 269 295 304 305 333 1 344 330 324 324 315 332 352 206 177 188 182 173 171 162 164 152 153 153 146 141 137 140 143 143 144 147 150 152 153 161 160 152
254 262 268 268 273 279 281 284 278 263 266 271 281 286 292 300 298 297 300 300 297 292 300 309 347 257 193 185 176 177 168 172 164 158 155 152 149 152 153 152 152 151 158 158 161 165 172 178 173
270 285 308 302 294 286 283 273 269 276 285 276 285 289 287 290 287 226 241 272 273 245 247 257 274 202 201 196 177 177 180 177 172 165 158 159 156 161 161 160 160 158 163 167 170 172 181 196 204
316 320 305 301 289 273 273 275 269 254 285 286 279 277 280 282 284 253 234 246 253 249 221 214 229 193 202 187 196 172 182 176 172 174 164 163 161 163 162 160 164 167 172 173 175 183 193 217 222
306 302 305 278 267 273 292 278 261 280 275 270 262 258 261 264 274 266 234 234 234 238 230 206 199 187 185 200 215 177 176 167 174 177 172 161 163 166 164 163 168 176 181 177 180 190 202 198 181
314 300 279 275 256 250 205 271 275 266 262 265 265 261 261 263 261 269 253 228 234 230 224 210 197 192 185 184 198 174 174 170 171 184 180 166 167 168 165 167 174 180 185 183 186 190 193 184 171
312 270 269 295 236 241 227 277 271 263 260 269 269 263 259 260 257 258 259 226 226 223 215 214 201 193 193 171 178 196 221 197 186 181 183 178 172 170 169 174 175 182 187 186 184 189 177 173 160
240 268 254 265 280 285 280 274 275 270 258 260 262 257 252 254 252 249 254 231 220 224 215 209 204 201 194 179 165 173 201 200 207 189 187 183 180 173 176 174 176 183 188 186 182 174 173 170 169
260 271 274 277 279 277 269 270 274 272 258 254 251 251 249 244 244 239 242 244 215 218 214 205 201 205 193 182 178 177 186 204 217 196 197 184 180 180 180 178 175 184 187 192 182 161 166 164 164
257 273 276 282 281 268 281 278 273 270 261 253 251 249 243 245 240 236 240 245 212 212 212 207 202 200 200 194 191 184 187 191 202 187 216 189 182 182 182 181 181 183 183 178 173 167 158 156 176
259 258 271 271 302 285 281 279 265 265 251 254 250 247 246 240 235 232 234 238 217 211 205 199 198 196 196 202 193 193 201 193 202 205 194 192 188 183 182 181 182 180 180 181 179 173 172 168 184
272 247 252 267 297 290 44 296 294 301 320 345 338 302 250 240 241 242 235 228 214 211 203 199 197 192 201 196 189 192 198 200 206 199 193 181 184 182 179 179 178 178 182 175 182 178 178 165 177
248 249 253 277 269 291 271 241 278 346 339 328 314 307 304 242 233 231 235 228 216 205 195 196 199 199 200 203 196 195 200 187 202 189 180 185 178 182 173 171 172 177 176 179 179 182 183 178 175
264 288 283 273 273 257 232 212 293 344 326 319 311 300 292 292 234 232 233 225 210 199 197 198 200 205 206 212 194 188 187 178 188 168 170 179 177 174 173 171 177 174 173 178 182 183 181 183 177
209 282 319 325 348 295 214 232 272 330 326 312 297 294 289 294 262 248 251 231 212 209 203 197 198 207 202 194 191 181 160 180 175 164 170 177 177 177 176 169 168 170 175 176 173 178 184 183 184
293 235 260 287 315 288 6 337 298 322 317 325 334 269 272 290 297 272 238 206 212 207 200 198 196 200 190 184 174 180 195 171 165 168 170 173 175 177 171 171 171 173 168 168 169 174 179 177 177
263 242 237 266 245 278 319 290 295 331 338 343 345 343 332 311 280 266 241 204 208 202 200 202 200 188 177 171 173 170 175 271 167 178 173 174 175 172 165 168 171 170 167 169 170 175 177 173 173
232 318 330 271 333 346 296 325 332 334 334 335 337 328 318 295 267 241 228 206 219 216 198 174 171 174 164 168 179 166 170 222 204 180 178 172 171 166 166 170 170 169 166 167 170 172 169 175 181
340 340 281 273 331 320 319 344 337 327 324 326 327 325 323 301 264 244 239 233 212 177 150 139 160 152 176 187 200 176 179 190 185 182 178 172 168 169 172 172 173 173 172 170 172 175 174 184 183
214 11 355 29 9 331 315 341 342 329 327 332 336 335 338 3 208 231 233 185 151 161 119 126 117 125 132 148 151 174 199 169 176 169 163 170 171 174 175 176 180 173 172 174 172 175 181 186 184